Norfolk, NE

7:30 PM CST on December 16, 2017 (GMT -0600)
Stefan Memorial

Weather History for KOFK - November, 2011

Change the Weather History Date:

Saturday, November 19, 2011

  Actual Average Record
Temperature  
Mean Temperature 24 °F 34 °F  
Max Temperature 32 °F 45 °F 73 °F (1989)
Min Temperature 16 °F 24 °F -4 °F (1914)
Degree Days  
Heating Degree Days 41 31  
Month to date heating degree days 480 487  
Since 1 July heating degree days 1023 1072  
Cooling Degree Days 0 0  
Month to date cooling degree days 0 0  
Year to date cooling degree days 1059 915  
Moisture  
Dew Point 20 °F    
Average Humidity 76    
Maximum Humidity 88    
Minimum Humidity 63    
Precipitation  
Precipitation 0.01 in 0.04 in 1.41 in (1975)
Month to date precipitation 0.10 0.91  
Year to date precipitation 20.25 26.20  
Snow  
Snow T in 0.20 in - ()
Month to date snowfall T 2.1  
Since 1 July snowfall T 2.9  
Snow Depth 0.00 in    
Sea Level Pressure  
Sea Level Pressure 29.86 in    
Wind  
Wind Speed 16 mph (North)    
Max Wind Speed 26 mph    
Max Gust Speed 37 mph    
Visibility 8 miles    
Events Rain , Snow    
T = Trace of Precipitation, MM = Missing Value Source: NWS Daily Summary

Daily Weather History Graph

Daily Weather History Graph

Search for Another Location

Airport or City:

Trip Planner

Search our weather history database for the weather conditions in past years. The results will help you decide how hot, cold, wet, or windy it might be!

Date:

Astronomy

Nov. 19, 2011 Rise Set
Actual Time 7:24 AM CST 5:05 PM CST
Civil Twilight 6:53 AM CST 5:35 PM CST
Nautical Twilight 6:19 AM CST 6:09 PM CST
Astronomical Twilight 5:46 AM CST 6:43 PM CST
Moon 12:40 AM CST (11/19) 1:29 PM CST (11/19)
Length of Visible Light 10h 42m
Length of Day
9h 41m
Last Quarter, 38% of the Moon is Illuminated
Nov 19
Last Quarter
Nov 25
New
Dec 2
First Quarter
Dec 10
Full
Dec 17
Last Quarter

Hourly Weather History & Observations

Time (CST) Temp. Windchill Dew Point Humidity Pressure Visibility Wind Dir Wind Speed Gust Speed Precip Events Conditions
12:56 AM 30.9 °F 23.5 °F 19.9 °F 64% 29.68 in 10.0 mi NNE 8.1 mph - N/A   Clear
1:56 AM 30.9 °F 22.2 °F 19.9 °F 64% 29.64 in 10.0 mi NE 10.4 mph - N/A   Clear
2:56 AM 32.0 °F 22.1 °F 21.0 °F 64% 29.63 in 10.0 mi ENE 13.8 mph - N/A   Overcast
3:25 AM 32.0 °F 20.8 °F 21.2 °F 64% 29.61 in 10.0 mi NE 17.3 mph 21.9 mph N/A   Overcast
4:56 AM 30.9 °F 20.7 °F 23.0 °F 72% 29.62 in 10.0 mi NE 13.8 mph - N/A   Overcast
5:39 AM 30.2 °F 19.8 °F 23.0 °F 75% 29.60 in 10.0 mi NNE 13.8 mph 20.7 mph N/A   Overcast
5:56 AM 30.0 °F 18.7 °F 24.1 °F 79% 29.65 in 10.0 mi NNE 16.1 mph 21.9 mph N/A   Overcast
6:19 AM 28.4 °F 17.0 °F 24.8 °F 86% 29.59 in 3.0 mi NE 15.0 mph 20.7 mph 0.00 in Rain Light Freezing Rain
6:32 AM 28.4 °F 17.5 °F 24.8 °F 86% 29.60 in 2.5 mi North 13.8 mph - 0.00 in Rain Light Freezing Rain
6:40 AM 28.4 °F 17.5 °F 26.6 °F 93% 29.62 in 2.5 mi North 13.8 mph 21.9 mph 0.00 in Snow Light Snow
7:42 AM 28.4 °F 17.0 °F 24.8 °F 86% 29.64 in 3.0 mi North 15.0 mph 23.0 mph 0.01 in Rain Light Freezing Rain
7:52 AM 28.4 °F 16.2 °F 24.8 °F 86% 29.64 in 2.5 mi North 17.3 mph 25.3 mph 0.01 in Snow Light Snow
7:53 AM 28.0 °F 16.1 °F 25.0 °F 88% 29.68 in 2.5 mi NNE 16.1 mph 25.3 mph 0.01 in Snow Light Snow
8:11 AM 26.6 °F 14.7 °F 24.8 °F 93% 29.66 in 3.0 mi North 15.0 mph 24.2 mph 0.00 in Rain Light Freezing Rain
8:25 AM 26.6 °F 13.4 °F 24.8 °F 93% 29.65 in 2.0 mi North 18.4 mph 26.5 mph 0.00 in Rain Light Freezing Rain
8:56 AM 27.0 °F 13.5 °F 23.0 °F 85% 29.72 in 3.0 mi North 19.6 mph 25.3 mph 0.00 in Rain Light Freezing Rain
9:56 AM 26.1 °F 12.7 °F 21.9 °F 84% 29.75 in 5.0 mi North 18.4 mph 31.1 mph 0.00 in Rain Light Freezing Rain
10:28 AM 26.6 °F 12.7 °F 21.2 °F 80% 29.73 in 8.0 mi North 20.7 mph 27.6 mph 0.00 in   Overcast
10:43 AM 26.6 °F 13.4 °F 21.2 °F 80% 29.72 in 10.0 mi North 18.4 mph 28.8 mph 0.00 in   Overcast
10:56 AM 26.1 °F 13.1 °F 21.9 °F 84% 29.77 in 10.0 mi North 17.3 mph 25.3 mph 0.00 in   Overcast
12:56 PM 25.0 °F 10.9 °F 21.0 °F 85% 29.84 in 10.0 mi NNW 19.6 mph 27.6 mph N/A   Overcast
1:33 PM 26.6 °F 13.1 °F 19.4 °F 74% 29.82 in 10.0 mi NNW 19.6 mph 26.5 mph N/A   Overcast
2:34 PM 26.6 °F 13.4 °F 21.2 °F 80% 29.87 in 10.0 mi NNW 18.4 mph - N/A   Overcast
2:56 PM 26.1 °F 12.3 °F 21.0 °F 81% 29.94 in 10.0 mi NNW 19.6 mph 24.2 mph N/A   Overcast
3:56 PM 25.0 °F 11.7 °F 19.9 °F 81% 29.99 in 10.0 mi NNW 17.3 mph 25.3 mph N/A   Overcast
4:56 PM 24.1 °F 10.1 °F 19.9 °F 84% 30.04 in 10.0 mi NNW 18.4 mph - N/A   Overcast
5:56 PM 24.1 °F 11.0 °F 19.0 °F 81% 30.09 in 10.0 mi NW 16.1 mph - N/A   Overcast
6:15 PM 23.0 °F 9.6 °F 19.4 °F 86% 30.05 in 10.0 mi NW 16.1 mph - N/A   Overcast
6:31 PM 23.0 °F 11.1 °F 17.6 °F 80% 30.07 in 10.0 mi NW 12.7 mph 23.0 mph N/A   Overcast
6:56 PM 23.0 °F 11.1 °F 18.0 °F 81% 30.15 in 10.0 mi NW 12.7 mph - N/A   Overcast
7:56 PM 21.9 °F 8.7 °F 16.0 °F 78% 30.19 in 10.0 mi NW 15.0 mph 23.0 mph N/A   Overcast
8:56 PM 21.9 °F 9.2 °F 16.0 °F 78% 30.21 in 10.0 mi NNW 13.8 mph - N/A   Overcast
9:56 PM 19.9 °F 6.7 °F 15.1 °F 81% 30.23 in 10.0 mi NW 13.8 mph 21.9 mph N/A   Mostly Cloudy
10:13 PM 19.4 °F 4.5 °F 14.0 °F 80% 30.16 in 10.0 mi NNW 17.3 mph - N/A   Scattered Clouds
10:56 PM 17.1 °F 4.3 °F 12.9 °F 84% 30.24 in 10.0 mi NNW 11.5 mph - N/A   Clear
11:19 PM 17.6 °F 5.0 °F 12.2 °F 79% 30.18 in 10.0 mi NNW 11.5 mph - N/A   Mostly Cloudy
11:38 PM 17.6 °F 3.7 °F 12.2 °F 79% 30.17 in 10.0 mi NNW 13.8 mph 20.7 mph N/A   Scattered Clouds
11:56 PM 17.1 °F 4.3 °F 10.9 °F 77% 30.27 in 10.0 mi NNW 11.5 mph - N/A   Clear